IW3HBX-13 Weather Reports


Display with metric or nautical units.
time (UTC)temp
F
wind
direction
speed
MPH
gust
MPH
rain 1hr
in
rain 24hr
in
rain mn
in
humidity
%
barometer
mb
20260509183006 69 77 1.0 2.0 0.00 0.00 0.00 57 1015.0
20260509182407 69 114 1.0 2.0 0.00 0.00 0.00 58 1015.0
20260509181806 69 100 0.0 2.0 0.00 0.00 0.00 58 1015.0
20260509181209 69 96 2.0 3.0 0.00 0.00 0.00 56 1015.0
20260509180609 70 79 1.0 2.0 0.00 0.00 0.00 56 1015.0
20260509175407 70 44 0.0 1.0 0.00 0.00 0.00 57 1015.1
20260509174807 71 108 2.0 4.0 0.00 0.00 0.00 57 1015.1
20260509174207 71 72 2.0 5.0 0.00 0.00 0.00 57 1015.1
20260509173608 71 130 2.0 3.0 0.00 0.00 0.00 57 1015.0
20260509173007 71 78 3.0 4.0 0.00 0.00 0.00 56 1015.1
20260509172410 72 40 2.0 3.0 0.00 0.00 0.00 56 1015.1
20260509171807 72 100 2.0 3.0 0.00 0.00 0.00 56 1015.0
20260509171206 73 111 2.0 3.0 0.00 0.00 0.00 56 1014.9
20260509170608 73 119 2.0 3.0 0.00 0.00 0.00 56 1014.9
20260509165409 73 122 3.0 4.0 0.00 0.00 0.00 56 1014.8
20260509164808 73 104 3.0 4.0 0.00 0.00 0.00 57 1014.8
20260509164210 74 108 3.0 6.0 0.00 0.00 0.00 57 1014.8
20260509163607 74 123 2.0 3.0 0.00 0.00 0.00 56 1014.9
20260509163008 74 87 3.0 6.0 0.00 0.00 0.00 56 1015.0
20260509162409 75 87 2.0 4.0 0.00 0.00 0.00 56 1015.0
20260509161810 76 68 2.0 2.0 0.00 0.00 0.00 56 1015.1
20260509161208 75 107 3.0 5.0 0.00 0.00 0.00 56 1015.1
20260509160607 76 107 3.0 5.0 0.00 0.00 0.00 56 1015.1
20260509155412 76 121 2.0 4.0 0.00 0.00 0.00 55 1015.0
20260509154806 76 113 2.0 4.0 0.00 0.00 0.00 56 1015.0
20260509154207 76 101 2.0 4.0 0.00 0.00 0.00 55 1015.0
20260509153608 76 110 3.0 4.0 0.00 0.00 0.00 55 1015.0
20260509153010 77 87 3.0 4.0 0.00 0.00 0.00 55 1015.0
20260509152409 77 120 2.0 3.0 0.00 0.00 0.00 54 1015.0
20260509151807 76 97 3.0 4.0 0.00 0.00 0.00 55 1015.0
20260509151207 76 86 3.0 5.0 0.00 0.00 0.00 56 1015.1
20260509150608 77 148 2.0 5.0 0.00 0.00 0.00 54 1015.2
20260509145410 75 103 3.0 5.0 0.00 0.00 0.00 56 1015.3
20260509144807 76 108 2.0 4.0 0.00 0.00 0.00 56 1015.2
20260509144207 77 119 3.0 5.0 0.00 0.00 0.00 56 1015.3
20260509143607 77 133 3.0 6.0 0.00 0.00 0.00 56 1015.3
20260509143007 77 107 3.0 4.0 0.00 0.00 0.00 56 1015.2
20260509142410 77 123 3.0 6.0 0.00 0.00 0.00 57 1015.4
20260509141807 77 104 4.0 6.0 0.00 0.00 0.00 56 1015.4
20260509141209 78 143 2.0 4.0 0.00 0.00 0.00 55 1015.5
20260509140607 77 136 3.0 4.0 0.00 0.00 0.00 56 1015.4
20260509135407 77 85 3.0 8.0 0.00 0.00 0.00 56 1015.5
20260509134808 77 142 3.0 4.0 0.00 0.00 0.00 55 1015.5
20260509134207 77 101 1.0 3.0 0.00 0.00 0.00 53 1015.5
20260509133607 77 105 3.0 4.0 0.00 0.00 0.00 55 1015.6
20260509133007 77 136 2.0 5.0 0.00 0.00 0.00 56 1015.7
20260509132409 78 146 3.0 5.0 0.00 0.00 0.00 52 1015.7
20260509131807 78 72 3.0 4.0 0.00 0.00 0.00 54 1015.8
20260509131207 78 107 5.0 8.0 0.00 0.00 0.00 50 1015.7
20260509130607 78 97 2.0 3.0 0.00 0.00 0.00 52 1015.7
20260509125411 77 232 1.0 2.0 0.00 0.00 0.00 46 1015.7
20260509124807 78 162 3.0 5.0 0.00 0.00 0.00 43 1015.8
20260509124207 77 96 2.0 3.0 0.00 0.00 0.00 44 1015.7
20260509123607 79 139 3.0 5.0 0.00 0.00 0.00 44 1015.8
20260509123009 78 290 2.0 4.0 0.00 0.00 0.00 43 1015.9
20260509122407 77 53 2.0 3.0 0.00 0.00 0.00 46 1015.9
20260509121809 78 229 2.0 3.0 0.00 0.00 0.00 45 1016.0
20260509121208 77 230 3.0 5.0 0.00 0.00 0.00 46 1016.0
20260509120607 77 227 3.0 6.0 0.00 0.00 0.00 46 1016.1
20260509115409 76 55 1.0 2.0 0.00 0.00 0.00 47 1016.2
20260509114807 75 46 2.0 3.0 0.00 0.00 0.00 47 1016.2
20260509114209 76 51 3.0 5.0 0.00 0.00 0.00 50 1016.4
20260509113607 78 139 0.0 2.0 0.00 0.00 0.00 45 1016.5
20260509113007 77 192 1.0 3.0 0.00 0.00 0.00 46 1016.5
20260509112409 78 122 1.0 2.0 0.00 0.00 0.00 45 1016.6
20260509111808 77 242 2.0 4.0 0.00 0.00 0.00 46 1016.6
20260509111207 76 242 1.0 3.0 0.00 0.00 0.00 48 1016.7
20260509110607 77 235 4.0 5.0 0.00 0.00 0.00 48 1016.8
20260509105409 77 266 2.0 2.0 0.00 0.00 0.00 49 1016.8
20260509104807 75 249 0.0 0.0 0.00 0.00 0.00 49 1016.9
20260509104207 76 254 3.0 4.0 0.00 0.00 0.00 48 1017.1
20260509103751 75 233 1.0 2.0 0.00 0.00 0.00 52 1017.1
20260509103609 75 233 1.0 2.0 0.00 0.00 0.00 52 1017.1
20260509103006 75 259 2.0 4.0 0.00 0.00 0.00 51 1017.2
20260509102407 74 241 2.0 5.0 0.00 0.00 0.00 54 1017.2
20260509101807 74 230 2.0 3.0 0.00 0.00 0.00 53 1017.2
20260509101206 74 278 2.0 4.0 0.00 0.00 0.00 53 1017.3
20260509100608 74 252 1.0 2.0 0.00 0.00 0.00 57 1017.3
20260509094806 73 224 1.0 4.0 0.00 0.00 0.00 57 1017.5
20260509094207 74 260 4.0 6.0 0.00 0.00 0.00 57 1017.5
20260509093606 75 183 0.0 2.0 0.00 0.00 0.00 58 1017.5
20260509093007 74 97 1.0 2.0 0.00 0.00 0.00 58 1017.5
20260509092409 74 236 3.0 6.0 0.00 0.00 0.00 59 1017.6
20260509091810 72 249 2.0 3.0 0.00 0.00 0.00 60 1017.5
20260509091208 71 233 2.0 4.0 0.00 0.00 0.00 61 1017.7
20260509090608 73 47 2.0 4.0 0.00 0.00 0.00 61 1017.7
20260509085408 72 263 0.0 1.0 0.00 0.00 0.00 60 1017.8
20260509084808 73 186 2.0 4.0 0.00 0.00 0.00 62 1017.7
20260509084206 72 242 0.0 0.0 0.00 0.00 0.00 62 1017.7
20260509083606 73 160 1.0 2.0 0.00 0.00 0.00 59 1017.8
20260509083009 73 137 2.0 4.0 0.00 0.00 0.00 61 1017.7
20260509082408 71 152 1.0 2.0 0.00 0.00 0.00 61 1017.7
20260509081807 71 240 1.0 2.0 0.00 0.00 0.00 63 1017.7
20260509081206 70 219 0.0 1.0 0.00 0.00 0.00 65 1017.7
20260509080606 71 153 1.0 2.0 0.00 0.00 0.00 63 1017.8
20260509075410 71 97 0.0 0.0 0.00 0.00 0.00 63 1017.9
20260509074807 70 298 1.0 2.0 0.00 0.00 0.00 65 1018.0
20260509074207 68 300 0.0 0.0 0.00 0.00 0.00 66 1017.9
20260509073607 68 343 2.0 3.0 0.00 0.00 0.00 68 1017.9
20260509073010 70 60 1.0 2.0 0.00 0.00 0.00 66 1017.9
20260509072408 70 60 0.0 2.0 0.00 0.00 0.00 63 1017.9
20260509071810 68 60 1.0 2.0 0.00 0.00 0.00 67 1017.9
20260509070610 67 58 0.0 2.0 0.00 0.00 0.00 67 1017.8
20260509065409 68 61 0.0 1.0 0.00 0.00 0.00 68 1017.7
20260509064808 68 61 1.0 2.0 0.00 0.00 0.00 68 1017.8
20260509063606 66 61 0.0 1.0 0.00 0.00 0.00 70 1017.8
20260509063007 65 61 1.0 2.0 0.00 0.00 0.00 72 1017.8
20260509062406 65 61 0.0 1.0 0.00 0.00 0.00 71 1017.6
20260509061809 63 61 0.0 2.0 0.00 0.00 0.00 73 1017.6
20260509060608 63 54 2.0 2.0 0.00 0.00 0.00 74 1017.6
20260509055408 62 70 1.0 2.0 0.00 0.00 0.00 74 1017.6
20260509054808 62 323 3.0 4.0 0.00 0.00 0.00 77 1017.6
20260509053609 59 201 0.0 1.0 0.00 0.00 0.00 80 1017.6
20260509053007 59 201 2.0 2.0 0.00 0.00 0.00 83 1017.5
20260509052407 59 156 1.0 2.0 0.00 0.00 0.00 82 1017.5
20260509051807 59 156 0.0 0.0 0.00 0.00 0.00 82 1017.7
20260509050607 59 156 0.0 0.0 0.00 0.00 0.00 82 1017.6
20260509045406 58 156 0.0 0.0 0.00 0.00 0.00 82 1017.5
20260509044807 56 156 0.0 0.0 0.00 0.00 0.00 84 1017.5
20260509043656 55 156 0.0 0.0 0.00 0.00 0.00 88 1017.3
20260509043610 55 156 0.0 0.0 0.00 0.00 0.00 88 1017.3
20260509043009 56 156 0.0 0.0 0.00 0.00 0.00 87 1017.4
20260509042406 56 156 0.0 0.0 0.00 0.00 0.00 87 1017.2
20260509041807 55 156 0.0 0.0 0.00 0.00 0.00 87 1017.3
20260509040607 54 156 0.0 0.0 0.00 0.00 0.00 89 1017.3
20260509035407 55 156 0.0 0.0 0.00 0.00 0.00 89 1017.2
20260509034808 55 156 0.0 0.0 0.00 0.00 0.00 89 1017.2
20260509033607 55 156 0.0 0.0 0.00 0.00 0.00 88 1017.2
20260509033007 55 156 0.0 0.0 0.00 0.00 0.00 88 1017.3
20260509032410 56 156 0.0 0.0 0.00 0.00 0.00 88 1017.2
20260509031807 56 156 0.0 0.0 0.00 0.00 0.00 88 1017.2
20260509030607 56 156 0.0 0.0 0.00 0.00 0.00 89 1017.1
20260509025408 56 156 0.0 0.0 0.00 0.00 0.00 88 1017.1
20260509024809 56 156 0.0 0.0 0.00 0.00 0.00 88 1017.1
20260509023608 57 156 0.0 0.0 0.00 0.00 0.00 88 1017.3
20260509023007 57 156 0.0 0.0 0.00 0.00 0.00 88 1017.3
20260509022407 57 156 0.0 0.0 0.00 0.00 0.00 88 1017.2
20260509021807 57 156 0.0 0.0 0.00 0.00 0.00 87 1017.1
20260509020610 57 151 0.0 0.0 0.00 0.00 0.00 88 1017.1
20260509015407 57 151 0.0 0.0 0.00 0.00 0.00 88 1017.1
20260509014906 57 151 0.0 0.0 0.00 0.00 0.00 87 1017.1
20260509014810 57 151 0.0 0.0 0.00 0.00 0.00 87 1017.1
20260509013609 57 151 0.0 0.0 0.00 0.00 0.00 87 1016.9
20260509013010 57 151 0.0 0.0 0.00 0.00 0.00 87 1017.0
20260509012409 56 151 0.0 0.0 0.00 0.00 0.00 88 1016.9
20260509011807 56 151 0.0 0.0 0.00 0.00 0.00 88 1016.9
20260509010607 56 151 0.0 0.0 0.00 0.00 0.00 88 1016.9
20260509005409 57 151 0.0 0.0 0.00 0.00 0.00 86 1016.8
20260509004809 57 151 0.0 0.0 0.00 0.00 0.00 86 1016.9
20260509003609 57 151 0.0 0.0 0.00 0.00 0.00 85 1016.8
20260509003007 57 151 0.0 0.0 0.00 0.00 0.00 85 1016.8
20260509002406 58 151 0.0 0.0 0.00 0.00 0.00 85 1016.8
20260509001807 58 151 0.0 0.0 0.00 0.00 0.00 84 1016.8
20260509000607 58 151 0.0 0.0 0.00 0.00 0.00 84 1016.8
20260508235407 59 151 0.0 0.0 0.00 0.00 0.00 83 1016.8
20260508234808 59 151 0.0 0.0 0.00 0.00 0.00 83 1016.8
20260508233607 59 151 0.0 0.0 0.00 0.00 0.00 83 1017.0
20260508233009 59 151 0.0 0.0 0.00 0.00 0.00 83 1017.0
20260508232408 59 151 0.0 0.0 0.00 0.00 0.00 82 1017.1
20260508231807 59 151 0.0 0.0 0.00 0.00 0.00 83 1017.0
20260508230610 59 151 0.0 0.0 0.00 0.00 0.00 83 1017.0
20260508225408 59 151 0.0 0.0 0.00 0.00 0.00 83 1017.1
20260508224807 59 151 0.0 0.0 0.00 0.00 0.00 82 1017.1
20260508223607 60 151 0.0 0.0 0.00 0.00 0.00 81 1017.1
20260508223008 60 151 0.0 0.0 0.00 0.00 0.00 82 1017.0
20260508222407 60 151 0.0 0.0 0.00 0.00 0.00 81 1017.1
20260508221807 60 151 0.0 0.0 0.00 0.00 0.00 80 1017.0
20260508220653 60 151 0.0 0.0 0.00 0.00 0.00 79 1017.0
20260508220607 60 151 0.0 0.0 0.00 0.00 0.00 79 1017.0
20260508215408 61 151 0.0 0.0 0.00 0.00 0.00 79 1017.0
20260508214810 61 151 0.0 0.0 0.00 0.00 0.00 78 1016.9
20260508213607 61 151 0.0 0.0 0.00 0.00 0.00 77 1016.9
20260508213009 61 151 0.0 0.0 0.00 0.00 0.00 77 1016.8
20260508212410 61 151 0.0 0.0 0.00 0.00 0.00 76 1016.8
20260508211809 61 151 0.0 0.0 0.00 0.00 0.00 76 1016.8
20260508210607 61 151 0.0 0.0 0.00 0.00 0.00 75 1016.8
20260508205408 61 151 0.0 0.0 0.00 0.00 0.00 74 1016.8
20260508204807 62 151 0.0 0.0 0.00 0.00 0.00 74 1016.7
20260508203607 62 151 0.0 0.0 0.00 0.00 0.00 73 1016.7
20260508203008 62 151 0.0 0.0 0.00 0.00 0.00 72 1016.6
20260508202407 63 151 0.0 0.0 0.00 0.00 0.00 71 1016.6
20260508201807 63 151 0.0 0.0 0.00 0.00 0.00 71 1016.5
20260508200608 63 151 0.0 0.0 0.00 0.00 0.00 70 1016.5
20260508195407 64 151 0.0 0.0 0.00 0.00 0.00 69 1016.5
20260508194810 64 151 0.0 0.0 0.00 0.00 0.00 69 1016.4
20260508193607 64 151 0.0 0.0 0.00 0.00 0.00 69 1016.3
20260508193121 64 151 0.0 0.0 0.00 0.00 0.00 68 1016.2
20260508193009 64 151 0.0 0.0 0.00 0.00 0.00 68 1016.2
20260508192407 65 151 0.0 0.0 0.00 0.00 0.00 68 1016.1
20260508191807 65 151 0.0 0.0 0.00 0.00 0.00 67 1016.1
20260508190607 66 151 0.0 0.0 0.00 0.00 0.00 67 1015.9
20260508185407 66 151 0.0 0.0 0.00 0.00 0.00 67 1015.8
20260508184808 66 151 0.0 0.0 0.00 0.00 0.00 66 1015.7
20260508183607 67 151 1.0 2.0 0.00 0.00 0.00 65 1015.6